SCP
0 0 0 0 0 0 0 0 0 0 0 0 0 0 0 0 0 0 0 0 0 0 0 0 0 0 0 0 0 0 0 0 0 0 0 0 0 0 0 0 0 0 0
0 0 0 0 0 0 0 0 0 0 0 0 0 0 0 0 0 0 0 0 0 0 0 0 0 0 0 0 0 0 0 0 0 0 0 0 0 0 0 0 0 0 0
0 0 0 0 0 0 0 0 0 0 0 0 0 0 0 0 0 0 0 0 0 0 0 0 0 0 0 0 0 0 0 0 0 0 0 0 0 0 0 0 0 0 0
0 0 0 0 0 0 0 0 0 0 0 0 0 0 0 0 0 0 0 0 0 0 0 0 0 0 0 0 0 0 0 0 0 0 0 0 0 0 0 0 0 0 0
0 0 0 0 0 0 0 0 0 0 0 0 0 0 0 0 0 0 0 0 0 0 0 0 0 0 0 0 0 0 0 0 0 0 0 0 0 0 0 0 0 0 0
0 0 0 0 0 0 0 0 0 0 0 0 0 0 0 0 0 0 0 0 0 0 0 0 0 0 0 0 0 0 0 0 0 0 0 0 0 0 0 0 0 0 0
0 0 0 0 0 0 0 0 0 0 0 0 0 0 0 0 0 0 0 0 0 0 0 0 0 0 0 0 0 0 0 0 0 0 0 0 0 0 0 0 0 0 0
0 0 0 0 0 0 0 0 0 0 0 0 0 0 0 0 0 0 0 0 0 0 0 0 0 0 0 0 0 0 0 0 0 0 0 0 0 0 0 0 0 0 0
0 0 0 0 0 0 0 0 0 0 0 0 0 0 0 0 0 0 0 0 0 0 0 0 0 0 0 0 0 0 0 0 0 0 0 0 0 0 0 0 0 0 0
0 0 0 0 0 0 0 0 0 0 0 0 0 0 0 0 0 0 0 0 0 0 0 0 0 0 0 0 0 0 0 0 0 0 0 0 0 0 0 0 0 0 0
0 0 0 0 0 0 0 0 0 0 0 0 0 0 0 0 0 0 0 0 0 0 0 0 0 0 0 0 0 0 0 0 0 0 0 0 0 0 0 0 0 0 0
0 0 0 0 0 0 0 0 0 0 0 0 0 0 0 0 0 0 0 0 0 0 0 0 0 0 0 0 0 0 0 0 0 0 0 0 0 0 0 0 0 0 0
-0 0 0 0 0 0 0 0 0 0 0 0 0 0 0 0 0 0 0 0 0 0 0 0 0 0 0 0 0 0 0 0 0 0 0 0 0 0 0 0 0 0 0
-0 -0 0 0 0 0 0 0 0 0 0 0 0 0 0 0 0 0 0 0 0 0 0 0 0 0 0 0 0 0 0 0 0 0 0 0 0 0 0 0 0 0 0
-0 0 0 0 -0 0 0 0 0 0 0 0 0 0 0 0 0 0 0 0 0 0 0 0 0 0 0 0 0 0 0 0 0 0 0 0 0 0 0 0 0 0 0
-0 -0 -0 -0 -0 0 0 0 0 0 0 0 0 0 0 0 0 0 0 0 0 0 0 0 0 0 0 0 0 0 0 0 0 0 0 0 0 0 0 0 0 0 0
0 -0 -0 0 0 0 0 0 0 0 0 0 0 0 0 0 0 0 0 0 0 0 0 0 0 0 0 0 0 0 0 0 0 0 0 0 0 0 0 0 0 0 0
-0 0 0 0 0 0 0 0 0 0 0 0 0 0 0 0 0 0 0 0 0 0 0 0 0 0 0 0 0 0 0 0 0 0 0 0 0 0 0 0 0 0 0
0 0 0 0 0 0 0 0 0 0 0 0 0 0 0 0 0 0 0 0 0 0 0 0 0 0 0 0 0 0 0 0 0 0 0 0 0 0 0 0 0 0 0
0 0 0 0 0 0 0 0 0 0 0 0 0 0 0 0 0 0 0 0 0 0 0 0 0 0 0 0 0 0 0 0 0 0 0 0 0 0 0 0 0 0 0
0 0 0 0 0 0 0 0 0 0 0 0 0 0 0 0 0 0 0 0 0 0 0 0 0 0 0 0 0 0 0 0 0 0 0 0 0 0 0 0 0 0 0
0 0 0 0 0 0 0 0 0 0 0 0 0 0 0 0 0 0 0 0 0 0 0 0 0 0 0 0 0 0 0 0 0 0 0 0 0 0 0 0 0 0 0
0 0 0 0 0 0 0 0 0 0 0 0 0 0 0 0 0 0 0 0 0 0 0 0 0 0 0 0 0 0 0 0 0 0 0 0 0 0 0 0 0 0 0
0 0 0 0 0 0 0 0 0 0 0 0 0 0 0 0 0 0 0 0 0 0 0 0 0 0 0 0 0 0 0 0 0 0 0 0 0 0 0 0 0 0 0
0 0 0 0 0 0 0 0 0 0 0 0 0 0 0 0 0 0 0 0 0 0 0 0 0 0 0 0 0 0 0 0 0 0 0 0 0 0 0 0 0 0 0
0 0 0 0 0 0 0 0 0 0 0 0 0 0 0 0 0 0 0 0 0 0 0 0 0 0 0 0 0 0 0 0 0 0 0 0 0 0 0 0 0 0 0
Wind_Speed_500mb
60 50 65 61 60 62 63 66 70 69 67 66 66 64 65 62 62 61 59 55 54 52 50 47 46 45 44 38 36 36 36 36 35 33 38 39 39 40 42 43 41 36 37
52 64 69 71 68 68 69 71 73 74 77 73 70 68 66 66 65 63 64 61 60 58 55 53 52 50 48 45 45 44 42 42 41 34 32 25 30 38 33 35 35 36 39
63 59 63 80 79 77 77 79 76 76 82 80 76 75 72 70 69 69 69 68 64 62 62 58 57 55 53 55 51 50 49 48 47 44 36 17 17 22 34 33 36 43 44
66 68 66 74 77 84 80 80 79 81 84 83 86 88 87 84 78 72 72 71 68 69 67 62 61 60 60 60 58 56 55 53 54 54 54 55 55 37 38 41 43 55 64
68 72 76 90 92 86 86 92 86 87 89 90 87 91 90 88 80 75 76 72 69 68 67 66 65 66 65 63 62 62 60 62 61 61 58 59 59 62 67 68 68 58 75
61 68 75 88 93 90 89 89 95 95 95 93 90 92 90 93 90 87 85 76 71 70 71 69 70 71 69 69 66 65 66 66 66 66 66 67 56 51 62 70 79 75 66
46 55 65 72 87 95 94 93 94 101 101 101 97 94 95 93 92 91 88 80 77 80 76 75 75 72 68 68 68 69 72 71 70 69 71 71 73 70 71 75 78 70 73
55 52 59 64 72 84 91 94 100 100 105 105 102 97 99 96 93 91 90 84 83 80 71 73 71 68 67 65 65 67 67 67 67 67 70 67 67 65 65 70 72 77 77
61 64 63 56 64 72 80 85 95 105 102 97 97 101 97 98 95 85 83 88 80 77 75 67 61 62 62 63 63 63 60 60 60 62 56 53 51 52 56 64 62 68 63
63 68 63 62 64 56 66 76 86 95 105 98 94 100 93 89 87 84 86 82 78 75 70 63 59 58 59 58 57 58 56 56 54 47 49 54 54 55 58 57 56 51 59
47 48 53 61 65 69 58 69 77 87 93 100 96 97 91 91 89 88 83 77 73 72 67 60 58 56 55 55 55 55 52 51 47 52 56 57 53 54 48 47 52 47 51
48 42 41 41 49 54 60 60 70 76 86 94 95 95 91 90 90 89 85 79 73 69 63 61 59 57 56 56 57 54 49 53 54 53 55 55 49 50 55 52 63 56 54
25 28 33 33 40 51 53 49 53 64 73 83 93 94 90 89 89 82 78 78 74 71 67 64 63 61 59 57 54 51 55 56 58 51 57 55 54 54 57 58 66 65 61
29 29 28 31 39 50 59 54 55 57 65 68 77 89 94 94 87 78 77 76 73 70 69 67 65 63 61 58 57 57 58 56 55 56 58 59 61 53 56 61 62 62 68
59 47 50 48 35 41 55 59 59 59 58 64 69 77 84 82 76 75 72 69 71 71 69 67 66 65 64 61 58 56 57 56 56 55 55 56 55 66 63 60 59 57 60
82 70 69 67 57 45 50 56 56 58 62 68 69 67 70 71 73 72 71 70 69 68 68 69 67 62 61 60 56 55 52 53 53 56 54 54 53 56 51 47 40 31 26
77 89 82 83 79 58 49 58 59 56 57 59 62 62 63 67 70 69 70 69 68 66 64 62 60 59 60 60 58 57 56 54 47 44 44 47 45 44 39 31 26 23 27
77 88 96 102 98 78 63 53 56 59 57 54 54 56 59 61 61 62 62 61 60 60 59 58 58 59 57 51 44 42 41 40 41 41 41 40 37 32 28 29 28 30 33
94 103 96 83 80 81 64 66 63 65 65 65 62 60 58 57 58 57 56 56 56 56 55 54 53 50 47 45 42 39 39 40 39 37 33 29 28 25 21 23 25 29 33
118 111 111 92 86 86 64 66 69 70 73 70 64 61 56 54 54 54 54 53 53 52 52 51 48 46 46 44 42 37 36 37 33 31 27 24 22 18 19 24 28 28 27
100 103 105 106 105 101 94 73 78 82 77 68 65 64 62 60 57 55 54 55 55 55 53 51 49 47 45 43 39 37 35 31 29 27 24 20 19 20 23 27 31 33 31
92 94 92 92 89 95 96 82 87 84 82 74 75 74 70 67 65 64 62 61 60 59 57 55 53 51 47 45 41 37 30 27 24 22 21 21 19 21 22 26 28 26 24
87 98 95 98 93 87 88 87 94 88 83 84 83 79 76 72 68 66 65 64 63 62 63 61 59 56 52 45 40 34 31 28 27 25 22 19 16 18 21 20 20 23 22
78 83 86 88 89 86 83 78 86 86 90 94 90 86 84 79 74 70 66 65 67 69 69 67 63 58 54 49 42 39 35 31 27 23 18 15 15 18 21 22 21 20 21
55 56 64 71 71 73 80 82 83 91 96 97 94 89 85 82 75 70 68 68 68 68 67 64 61 61 57 51 42 37 37 37 31 24 19 15 13 12 14 16 15 13 14
44 39 42 53 54 58 67 68 74 86 91 96 95 94 90 84 77 71 67 63 60 61 60 55 54 52 46 47 47 45 41 35 28 25 19 15 13 11 11 12 11 11 13
Wind_Direction_500mb
241 234 240 242 236 230 224 224 225 227 227 225 226 227 228 226 226 227 226 223 224 225 226 227 228 231 237 239 242 245 250 256 258 261 272 277 275 277 281 284 283 290 288
244 238 239 236 236 235 230 224 224 225 229 229 231 232 233 232 231 231 230 227 226 228 230 231 233 235 239 241 243 246 252 254 256 260 266 280 287 288 287 287 287 289 284
240 237 235 239 240 234 233 229 227 227 227 229 231 232 235 236 234 233 233 230 231 232 233 235 237 239 241 245 247 251 252 256 261 258 252 262 268 283 296 290 287 293 292
241 238 236 238 240 239 236 236 232 229 229 227 229 231 233 234 236 236 236 235 233 234 236 238 241 243 245 248 250 253 255 257 256 262 259 260 262 273 290 292 289 289 289
243 241 237 239 240 240 238 237 235 231 230 228 230 232 235 239 240 241 242 240 239 240 242 242 244 245 247 250 252 255 255 258 260 261 266 271 270 271 269 277 284 282 293
246 244 245 245 242 241 238 237 237 234 233 232 231 233 236 236 238 239 243 243 242 242 242 243 244 247 250 252 255 257 259 260 262 264 265 267 262 268 274 276 283 287 289
252 249 246 240 240 240 238 236 235 234 233 234 233 233 236 236 238 242 244 245 245 243 242 243 246 249 252 255 257 259 260 261 262 265 267 268 270 273 275 277 280 278 286
264 259 254 247 246 244 243 238 235 235 236 238 238 235 236 237 238 240 243 246 246 247 249 249 250 253 254 255 257 259 261 260 262 262 264 268 270 273 276 279 283 282 286
261 260 256 257 252 245 246 242 236 235 236 240 239 234 236 237 238 240 242 244 248 249 250 252 251 251 252 253 254 256 256 257 258 261 265 269 273 273 277 278 282 285 281
267 266 266 258 248 250 250 243 238 236 236 240 238 234 236 238 240 240 242 244 247 249 249 250 249 248 249 248 248 250 251 253 257 261 265 266 269 273 276 282 286 288 292
278 282 276 268 254 249 257 247 242 237 235 235 236 235 235 237 237 239 241 243 245 247 247 246 246 247 247 244 244 246 248 250 255 258 263 266 271 275 280 280 282 285 283
281 283 273 268 248 248 241 245 245 241 238 236 237 237 238 238 237 238 240 242 244 245 245 244 244 244 243 241 241 242 246 252 255 259 265 269 269 270 269 275 275 277 274
319 295 293 277 251 245 237 242 244 241 240 238 237 236 237 236 236 239 242 242 242 243 244 244 242 242 242 241 240 244 245 248 254 256 258 264 265 268 269 271 278 275 272
302 314 330 311 274 247 231 239 245 245 239 238 237 234 234 234 239 243 240 239 238 240 240 240 240 240 241 241 239 244 247 249 254 254 258 261 263 259 267 273 275 274 277
281 285 305 313 304 264 247 243 244 241 239 239 237 234 234 236 236 235 235 234 234 235 236 237 238 238 242 243 244 243 246 246 249 254 258 257 263 257 271 274 277 277 276
278 290 292 293 289 281 258 251 247 243 239 237 236 234 231 230 230 231 230 230 231 232 234 235 238 238 240 240 237 237 238 241 244 247 249 255 261 266 270 271 272 278 283
270 281 287 287 285 278 277 259 251 245 241 237 233 230 228 227 227 227 227 228 229 231 232 233 235 236 237 238 240 240 240 241 240 244 251 253 256 260 261 267 271 266 260
271 275 279 281 281 277 279 263 245 240 236 229 225 223 223 223 224 225 226 226 227 228 230 232 233 234 235 237 233 228 229 234 238 240 243 248 256 263 268 270 272 272 272
267 267 271 275 274 276 267 257 245 238 235 232 226 221 217 216 216 218 220 222 224 224 225 227 228 228 226 225 228 231 230 232 234 235 238 247 253 263 261 269 274 277 279
254 259 265 267 262 263 268 257 245 237 231 224 220 215 210 210 213 215 217 220 222 223 223 221 220 220 223 227 233 235 229 228 229 230 230 233 241 254 262 260 266 271 271
258 259 263 267 263 262 264 255 245 239 232 221 216 213 211 212 213 215 218 220 220 219 219 219 221 224 227 229 231 226 218 220 224 227 230 237 245 254 261 260 261 260 256
262 262 264 266 265 263 260 248 243 242 231 221 218 216 214 212 212 213 213 215 217 216 217 218 219 222 221 218 213 209 203 210 216 224 224 231 237 247 255 258 259 256 259
264 267 264 262 263 262 260 250 246 235 230 221 219 218 218 216 215 215 214 214 216 217 218 217 216 214 210 204 197 194 198 206 207 210 213 221 240 253 261 270 269 276 274
271 273 271 265 262 257 258 251 242 238 232 223 220 219 218 214 212 214 217 220 220 219 218 215 211 206 201 197 196 197 200 201 201 200 207 217 231 242 249 256 262 264 267
285 271 266 265 262 258 252 247 238 232 228 223 222 218 216 215 213 215 219 220 223 225 221 216 211 204 200 198 195 195 196 195 191 193 192 197 211 226 233 244 256 267 280
292 279 267 266 258 249 245 242 237 230 226 221 218 216 213 212 212 214 214 216 221 221 214 211 207 204 200 195 190 189 187 187 185 183 180 180 202 207 230 245 259 276 289
Wind_Speed_850mb
60 50 65 61 60 62 63 66 70 69 67 66 66 64 65 62 62 61 59 55 54 52 50 47 46 45 44 38 36 36 36 36 35 33 38 39 39 40 42 43 41 36 37
52 64 69 71 68 68 69 71 73 74 77 73 70 68 66 66 65 63 64 61 60 58 55 53 52 50 48 45 45 44 42 42 41 34 32 25 30 38 33 35 35 36 39
63 59 63 80 79 77 77 79 76 76 82 80 76 75 72 70 69 69 69 68 64 62 62 58 57 55 53 55 51 50 49 48 47 44 36 17 17 22 34 33 36 43 44
66 68 66 74 77 84 80 80 79 81 84 83 86 88 87 84 78 72 72 71 68 69 67 62 61 60 60 60 58 56 55 53 54 54 54 55 55 37 38 41 43 55 64
68 72 76 90 92 86 86 92 86 87 89 90 87 91 90 88 80 75 76 72 69 68 67 66 65 66 65 63 62 62 60 62 61 61 58 59 59 62 67 68 68 58 75
61 68 75 88 93 90 89 89 95 95 95 93 90 92 90 93 90 87 85 76 71 70 71 69 70 71 69 69 66 65 66 66 66 66 66 67 56 51 62 70 79 75 66
46 55 65 72 87 95 94 93 94 101 101 101 97 94 95 93 92 91 88 80 77 80 76 75 75 72 68 68 68 69 72 71 70 69 71 71 73 70 71 75 78 70 73
55 52 59 64 72 84 91 94 100 100 105 105 102 97 99 96 93 91 90 84 83 80 71 73 71 68 67 65 65 67 67 67 67 67 70 67 67 65 65 70 72 77 77
61 64 63 56 64 72 80 85 95 105 102 97 97 101 97 98 95 85 83 88 80 77 75 67 61 62 62 63 63 63 60 60 60 62 56 53 51 52 56 64 62 68 63
63 68 63 62 64 56 66 76 86 95 105 98 94 100 93 89 87 84 86 82 78 75 70 63 59 58 59 58 57 58 56 56 54 47 49 54 54 55 58 57 56 51 59
47 48 53 61 65 69 58 69 77 87 93 100 96 97 91 91 89 88 83 77 73 72 67 60 58 56 55 55 55 55 52 51 47 52 56 57 53 54 48 47 52 47 51
48 42 41 41 49 54 60 60 70 76 86 94 95 95 91 90 90 89 85 79 73 69 63 61 59 57 56 56 57 54 49 53 54 53 55 55 49 50 55 52 63 56 54
25 28 33 33 40 51 53 49 53 64 73 83 93 94 90 89 89 82 78 78 74 71 67 64 63 61 59 57 54 51 55 56 58 51 57 55 54 54 57 58 66 65 61
29 29 28 31 39 50 59 54 55 57 65 68 77 89 94 94 87 78 77 76 73 70 69 67 65 63 61 58 57 57 58 56 55 56 58 59 61 53 56 61 62 62 68
59 47 50 48 35 41 55 59 59 59 58 64 69 77 84 82 76 75 72 69 71 71 69 67 66 65 64 61 58 56 57 56 56 55 55 56 55 66 63 60 59 57 60
82 70 69 67 57 45 50 56 56 58 62 68 69 67 70 71 73 72 71 70 69 68 68 69 67 62 61 60 56 55 52 53 53 56 54 54 53 56 51 47 40 31 26
77 89 82 83 79 58 49 58 59 56 57 59 62 62 63 67 70 69 70 69 68 66 64 62 60 59 60 60 58 57 56 54 47 44 44 47 45 44 39 31 26 23 27
77 88 96 102 98 78 63 53 56 59 57 54 54 56 59 61 61 62 62 61 60 60 59 58 58 59 57 51 44 42 41 40 41 41 41 40 37 32 28 29 28 30 33
94 103 96 83 80 81 64 66 63 65 65 65 62 60 58 57 58 57 56 56 56 56 55 54 53 50 47 45 42 39 39 40 39 37 33 29 28 25 21 23 25 29 33
118 111 111 92 86 86 64 66 69 70 73 70 64 61 56 54 54 54 54 53 53 52 52 51 48 46 46 44 42 37 36 37 33 31 27 24 22 18 19 24 28 28 27
100 103 105 106 105 101 94 73 78 82 77 68 65 64 62 60 57 55 54 55 55 55 53 51 49 47 45 43 39 37 35 31 29 27 24 20 19 20 23 27 31 33 31
92 94 92 92 89 95 96 82 87 84 82 74 75 74 70 67 65 64 62 61 60 59 57 55 53 51 47 45 41 37 30 27 24 22 21 21 19 21 22 26 28 26 24
87 98 95 98 93 87 88 87 94 88 83 84 83 79 76 72 68 66 65 64 63 62 63 61 59 56 52 45 40 34 31 28 27 25 22 19 16 18 21 20 20 23 22
78 83 86 88 89 86 83 78 86 86 90 94 90 86 84 79 74 70 66 65 67 69 69 67 63 58 54 49 42 39 35 31 27 23 18 15 15 18 21 22 21 20 21
55 56 64 71 71 73 80 82 83 91 96 97 94 89 85 82 75 70 68 68 68 68 67 64 61 61 57 51 42 37 37 37 31 24 19 15 13 12 14 16 15 13 14
44 39 42 53 54 58 67 68 74 86 91 96 95 94 90 84 77 71 67 63 60 61 60 55 54 52 46 47 47 45 41 35 28 25 19 15 13 11 11 12 11 11 13
Wind_Direction_850mb
241 234 240 242 236 230 224 224 225 227 227 225 226 227 228 226 226 227 226 223 224 225 226 227 228 231 237 239 242 245 250 256 258 261 272 277 275 277 281 284 283 290 288
244 238 239 236 236 235 230 224 224 225 229 229 231 232 233 232 231 231 230 227 226 228 230 231 233 235 239 241 243 246 252 254 256 260 266 280 287 288 287 287 287 289 284
240 237 235 239 240 234 233 229 227 227 227 229 231 232 235 236 234 233 233 230 231 232 233 235 237 239 241 245 247 251 252 256 261 258 252 262 268 283 296 290 287 293 292
241 238 236 238 240 239 236 236 232 229 229 227 229 231 233 234 236 236 236 235 233 234 236 238 241 243 245 248 250 253 255 257 256 262 259 260 262 273 290 292 289 289 289
243 241 237 239 240 240 238 237 235 231 230 228 230 232 235 239 240 241 242 240 239 240 242 242 244 245 247 250 252 255 255 258 260 261 266 271 270 271 269 277 284 282 293
246 244 245 245 242 241 238 237 237 234 233 232 231 233 236 236 238 239 243 243 242 242 242 243 244 247 250 252 255 257 259 260 262 264 265 267 262 268 274 276 283 287 289
252 249 246 240 240 240 238 236 235 234 233 234 233 233 236 236 238 242 244 245 245 243 242 243 246 249 252 255 257 259 260 261 262 265 267 268 270 273 275 277 280 278 286
264 259 254 247 246 244 243 238 235 235 236 238 238 235 236 237 238 240 243 246 246 247 249 249 250 253 254 255 257 259 261 260 262 262 264 268 270 273 276 279 283 282 286
261 260 256 257 252 245 246 242 236 235 236 240 239 234 236 237 238 240 242 244 248 249 250 252 251 251 252 253 254 256 256 257 258 261 265 269 273 273 277 278 282 285 281
267 266 266 258 248 250 250 243 238 236 236 240 238 234 236 238 240 240 242 244 247 249 249 250 249 248 249 248 248 250 251 253 257 261 265 266 269 273 276 282 286 288 292
278 282 276 268 254 249 257 247 242 237 235 235 236 235 235 237 237 239 241 243 245 247 247 246 246 247 247 244 244 246 248 250 255 258 263 266 271 275 280 280 282 285 283
281 283 273 268 248 248 241 245 245 241 238 236 237 237 238 238 237 238 240 242 244 245 245 244 244 244 243 241 241 242 246 252 255 259 265 269 269 270 269 275 275 277 274
319 295 293 277 251 245 237 242 244 241 240 238 237 236 237 236 236 239 242 242 242 243 244 244 242 242 242 241 240 244 245 248 254 256 258 264 265 268 269 271 278 275 272
302 314 330 311 274 247 231 239 245 245 239 238 237 234 234 234 239 243 240 239 238 240 240 240 240 240 241 241 239 244 247 249 254 254 258 261 263 259 267 273 275 274 277
281 285 305 313 304 264 247 243 244 241 239 239 237 234 234 236 236 235 235 234 234 235 236 237 238 238 242 243 244 243 246 246 249 254 258 257 263 257 271 274 277 277 276
278 290 292 293 289 281 258 251 247 243 239 237 236 234 231 230 230 231 230 230 231 232 234 235 238 238 240 240 237 237 238 241 244 247 249 255 261 266 270 271 272 278 283
270 281 287 287 285 278 277 259 251 245 241 237 233 230 228 227 227 227 227 228 229 231 232 233 235 236 237 238 240 240 240 241 240 244 251 253 256 260 261 267 271 266 260
271 275 279 281 281 277 279 263 245 240 236 229 225 223 223 223 224 225 226 226 227 228 230 232 233 234 235 237 233 228 229 234 238 240 243 248 256 263 268 270 272 272 272
267 267 271 275 274 276 267 257 245 238 235 232 226 221 217 216 216 218 220 222 224 224 225 227 228 228 226 225 228 231 230 232 234 235 238 247 253 263 261 269 274 277 279
254 259 265 267 262 263 268 257 245 237 231 224 220 215 210 210 213 215 217 220 222 223 223 221 220 220 223 227 233 235 229 228 229 230 230 233 241 254 262 260 266 271 271
258 259 263 267 263 262 264 255 245 239 232 221 216 213 211 212 213 215 218 220 220 219 219 219 221 224 227 229 231 226 218 220 224 227 230 237 245 254 261 260 261 260 256
262 262 264 266 265 263 260 248 243 242 231 221 218 216 214 212 212 213 213 215 217 216 217 218 219 222 221 218 213 209 203 210 216 224 224 231 237 247 255 258 259 256 259
264 267 264 262 263 262 260 250 246 235 230 221 219 218 218 216 215 215 214 214 216 217 218 217 216 214 210 204 197 194 198 206 207 210 213 221 240 253 261 270 269 276 274
271 273 271 265 262 257 258 251 242 238 232 223 220 219 218 214 212 214 217 220 220 219 218 215 211 206 201 197 196 197 200 201 201 200 207 217 231 242 249 256 262 264 267
285 271 266 265 262 258 252 247 238 232 228 223 222 218 216 215 213 215 219 220 223 225 221 216 211 204 200 198 195 195 196 195 191 193 192 197 211 226 233 244 256 267 280
292 279 267 266 258 249 245 242 237 230 226 221 218 216 213 212 212 214 214 216 221 221 214 211 207 204 200 195 190 189 187 187 185 183 180 180 202 207 230 245 259 276 289